Location: Fluertsh�userhof
(48.7537°N, 10.3850°E)
Time: 05:42:40
(UTC+00:00)

Meteor 1-15 Rocket - Pass Details

Date: 18 September 2020
Orbit: 840 x 907 km, 81.2° (Epoch: 29 October)

Event Time Altitude Azimuth Distance (km) Brightness Sun altitude
Rises 19:51:11 0° 198° (SSW) 3,395 7.2 -23.7°
Reaches altitude 10° 19:53:36 10° 201° (SSW) 2,470 6.5 -24.0°
Maximum altitude 19:59:10 68° 284° (WNW) 928 4.5 -24.8°
Drops below altitude 10° 20:04:53 10° 8° (N) 2,528 7.0 -25.6°
Sets 20:07:23 0° 11° (N) 3,481 7.7 -25.9°
